Location: Hawks Ness
(60.2333°N, 1.1667°W)
Time: 12:19:50
(UTC+00:00)

SL-16 R/B - Pass Details

Date: 22 October 2019
Orbit: 842 x 846 km, 71.0° (Epoch: 12 November)

Event Time Altitude Azimuth Distance (km) Brightness Sun altitude
Exits shadow 05:45:34 10° 299° (WNW) 2,491 4.1 -10.0°
Reaches altitude 10° 05:45:36 10° 299° (WNW) 2,479 4.1 -9.9°
Maximum altitude 05:50:28 28° 358° (N) 1,543 3.5 -9.3°
Drops below altitude 10° 05:55:21 10° 57° (ENE) 2,481 5.5 -8.7°
Sets 05:58:10 0° 69° (ENE) 3,417 6.6 -8.4°
